Погода в Таласе

Турция     38°41′34″N   35°32′58″E
темп.,
°C
ветер,
м/с
пор.,
м/с
влажн.,
%
обл.,
%
осадки,
мм/ч
давл.,
гПа
погр.,
м
19 января, вт
вт1900:00−7вюв2262100 0.0 102383
03:00−7вюв1265100 0.0 102294
06:00−8вюв126835 0.0 102453
09:00−8вюв116218 0.0 1024142
12:00−6св21540 0.0 1023587
15:00−5св21480 0.0 1020756
18:00−6вюв11620 0.0 102233
21:00−8юв22590 0.0 102364
20 января, ср
ср2000:00−8вюв11570 0.0 102585
03:00−9вюв11610 0.0 102579
06:00−10вюв11653 0.0 102674
09:00−10з016319 0.0 1028301
12:00−7зсз225945 0.0 1028640
15:00−5зсз235722 0.0 1026864
18:00−6юз236118 0.0 103072
21:00−6юз22589 0.0 103249
21 января, чт
чт2100:00−7юз22620 0.0 103443
03:00−7ююв11620 0.0 103422
06:00−8вюв11600 0.0 103631
09:00−7вюв22530 0.0 103779
12:00−4всв21480 0.0 1035333
15:00−1всв21500 0.0 1032436
18:00−4вюв22660 0.0 103431
21:00−4в225934 0.0 103549
22 января, пт
пт2200:00−3в2258100 0.0 103456
03:00−4в226092 0.0 103338
06:00−5всв226035 0.0 103338
09:00−3всв225560 0.0 103453
12:00+1всв224663 0.0 1031278
15:00+3всв224831 0.0 1029351
18:00−2в22670 0.0 103025
21:00−2в225815 0.0 103130
23 января, сб
сб2300:00−2в225589 0.0 103137
03:00−2в225489 0.0 103144
06:00−3в225283 0.0 102945
09:00−2всв234890 0.0 103088
12:00+2св334014 0.0 1028284
15:00+4св334229 0.0 1025324
18:00−1в23570 0.0 102531
21:00−2всв33510 0.0 102641